Tracking 19562 objects as of 22-Mar-2019
HD Live streaming from Space Station
objects crossing your sky now

COSMOS 862

Track COSMOS 862 now!
COSMOS 862 is classified as:


NORAD ID: 9495
Int'l Code: 1976-105A
Perigee: 5,059.8 km
Apogee: 35,362.7 km
Inclination: 69.6 °
Period: 718.9 minutes
Semi major axis: 26582 km
RCS: 11.7728 m2 (large)
Launch date: October 22, 1976
Source: Commonwealth of Independent States (former USSR) (CIS)
Launch site: PLESETSK MISSILE AND SPACE COMPLEX (PKMTR)
aabbcc
Your satellite tracking list
Your tracking list is empty




NASA's NSSDC Master Catalog

Two Line Element Set (TLE):
1  9495U 76105A   19080.90209358 +.00000414 +00000-0 +00000-0 0  9999
2  9495 069.6394 197.1885 5699827 273.6447 026.4442 02.00315368188629
Source of the keplerian elements: AFSPC